• Join FlightAware (Why Join?)
  • Login
  • US Flag 
07:30PM EST


 

Airport Tracker/Info


-or-


 

Live Flight TrackerFlight Track Log ✈ N500NM ✈ 25-Mar-2014 ✈ KTMB - KMOB

Flight Track Log - Related Links

Times and Time Zones

All times are in EDT time to prevent confusion due to time zone crossing. See the N500NM flight status page for this flight to view local times or setup timezone preferences in your user account.

Time Position Orientation Groundspeed Altitude Reporting Facility
EDT Latitude Longitude Course Direction KTS MPH feet Rate Location/Type
03:14PM 25.6475 -80.4544 324° Northwest 107 123 500  Level Miami Center
03:15PM 25.6492 -80.4800 274° West 97 112 1,200 672 Climbing Miami Center
03:16PM 25.6442 -80.5122 260° West 100 115 1,800 621 Climbing Miami Center
03:17PM 25.6478 -80.5375 279° West 145 167 2,400 724 Climbing Miami Center
03:18PM 25.6831 -80.5433 352° North 119 137 3,200 718 Climbing Miami Center
03:19PM 25.7142 -80.5489 351° North 126 145 3,800 744 Climbing Miami Center
03:20PM 25.8372 -80.5598 324° Northwest  Level FlightAware Approximate
03:20PM 25.7536 -80.5569 350° North 116 133 4,800  Level Miami Center
03:21PM 25.7761 -80.5783 319° Northwest 108 124 5,500 724 Climbing Miami Center
03:22PM 25.7919 -80.6089 300° West 110 127 6,200 709 Climbing Miami Center
03:23PM 25.8122 -80.6372 308° West 110 127 7,000 568 Climbing Miami Center
03:23PM 25.8183 -80.6397 340° North 113 130 6,900 -88 Descending Miami Center
03:24PM 25.8425 -80.6750 307° West 152 175 6,900 50 Level Miami Center
03:25PM 25.8772 -80.7039 323° Northwest 171 197 7,000 879 Climbing Miami Center
03:26PM 25.9108 -80.7025 North 119 137 8,600 1,600 Climbing Miami Center
03:26PM 25.9192 -80.7006 12° North 116 133 8,600 656 Level Miami Center
03:27PM 25.9464 -80.6944 11° North 143 165 9,300 850 Climbing Miami Center
03:28PM 25.9844 -80.6864 11° North 143 165 10,300 950 Climbing Miami Center
03:29PM 26.0092 -80.6964 340° North 117 135 11,200 800 Climbing Miami Center
03:30PM 26.0336 -80.7158 324° Northwest 102 117 11,900 600 Climbing Miami Center
03:31PM 26.0564 -80.7303 330° Northwest 102 117 12,400 600 Climbing Miami Center
03:32PM 26.0850 -80.7497 329° Northwest 107 123 13,100 700 Climbing Miami Center
03:33PM 26.1117 -80.7669 330° Northwest 107 123 13,800 650 Climbing Miami Center
03:34PM 26.1364 -80.7839 328° Northwest 107 123 14,400 550 Climbing Miami Center
03:35PM 26.1608 -80.8008 328° Northwest 107 123 14,900 600 Climbing Miami Center
03:36PM 26.1958 -80.8228 331° Northwest 113 130 15,600 700 Climbing Miami Center
03:37PM 26.2225 -80.8400 330° Northwest 113 130 16,300 600 Climbing Miami Center
03:38PM 26.2469 -80.8594 324° Northwest 113 130 16,800 550 Climbing Miami Center
03:39PM 26.2736 -80.8764 330° Northwest 113 130 17,400 500 Climbing Miami Center
03:40PM 26.3025 -80.8958 329° Northwest 118 136 17,800 500 Climbing Miami Center
03:41PM 26.3311 -80.9131 332° Northwest 124 143 18,400 500 Climbing Miami Center
03:42PM 26.3597 -80.9328 328° Northwest 124 143 18,800 450 Climbing Miami Center
03:43PM 26.3906 -80.9522 331° Northwest 124 143 19,300 500 Climbing Miami Center
03:44PM 26.4214 -80.9719 330° Northwest 124 143 19,800 350 Climbing Miami Center
03:45PM 26.4522 -80.9939 327° Northwest 124 143 20,000 100 Climbing Miami Center
03:46PM 26.4911 -81.0183 331° Northwest 134 154 20,000  Level Miami Center
03:47PM 26.5300 -81.0431 330° Northwest 147 169 20,000  Level Miami Center
03:48PM 26.5650 -81.0653 330° Northwest 155 178 20,000  Level Miami Center
03:49PM 26.5997 -81.0872 331° Northwest 155 178 20,000  Level Miami Center
03:50PM 26.6406 -81.1167 327° Northwest 155 178 20,000  Level Miami Center
03:51PM 26.6797 -81.1389 333° Northwest 160 184 20,000  Level Miami Center
03:52PM 26.7144 -81.1633 328° Northwest 160 184 20,000  Level Miami Center
03:53PM 26.7492 -81.1858 330° Northwest 160 184 20,000  Level Miami Center
03:54PM 26.7903 -81.2128 330° Northwest 160 184 20,000  Level Miami Center
03:55PM 26.8250 -81.2372 328° Northwest 155 178 20,000  Level Miami Center
03:56PM 26.8619 -81.2619 329° Northwest 155 178 20,000  Level Miami Center
03:57PM 26.8925 -81.2819 330° Northwest 150 173 20,000  Level Miami Center
03:58PM 26.9294 -81.3064 329° Northwest 150 173 20,000  Level Miami Center
03:59PM 26.9683 -81.3314 330° Northwest 145 167 20,000  Level Miami Center
04:00PM 27.0050 -81.3561 329° Northwest 145 167 20,000  Level Miami Center
04:01PM 27.0419 -81.3783 332° Northwest 145 167 20,000  Level Miami Center
04:02PM 27.0725 -81.4006 327° Northwest 145 167 20,000  Level Miami Center
04:03PM 27.1075 -81.4231 330° Northwest 145 167 20,000  Level Miami Center
04:04PM 27.1464 -81.4478 331° Northwest 145 167 20,000  Level Miami Center
04:05PM 27.1808 -81.4725 327° Northwest 145 167 20,000  Level Miami Center
04:06PM 27.2158 -81.4950 330° Northwest 145 167 20,000  Level Miami Center
04:07PM 27.2464 -81.5172 327° Northwest 139 160 20,000  Level Miami Center
04:08PM 27.2750 -81.5347 331° Northwest 139 160 20,000  Level Miami Center
04:09PM 27.3200 -81.5644 330° Northwest 139 160 20,000  Level Miami Center
04:10PM 27.3547 -81.5892 328° Northwest 139 160 20,000  Level Miami Center
04:11PM 27.3933 -81.6167 328° Northwest 139 160 20,000  Level Miami Center
04:12PM 27.4342 -81.6417 331° Northwest 139 160 20,000  Level Miami Center
04:13PM 27.4689 -81.6642 330° Northwest 139 160 20,000  Level Miami Center
04:14PM 27.5036 -81.6892 327° Northwest 139 160 20,000  Level Miami Center
04:15PM 27.5342 -81.7114 327° Northwest 139 160 20,000  Level Miami Center
04:16PM 27.5711 -81.7342 331° Northwest 139 160 20,000  Level Miami Center
04:17PM 27.6078 -81.7592 329° Northwest 139 160 20,000  Level Miami Center
04:18PM 27.6422 -81.7839 328° Northwest 139 160 20,000  Level Miami Center
04:19PM 27.6769 -81.8067 330° Northwest 139 160 20,000  Level Miami Center
04:20PM 27.7078 -81.8267 330° Northwest 139 160 20,000  Level Miami Center
04:22PM 27.7661 -81.8653 330° Northwest 142 163 20,000  Level Jacksonville Center
04:23PM 27.8039 -81.8886 331° Northwest 142 163 20,000  Level Jacksonville Center
04:24PM 27.8375 -81.9139 326° Northwest 147 169 20,000  Level Jacksonville Center
04:25PM 27.8711 -81.9372 328° Northwest 147 169 20,000  Level Jacksonville Center
04:26PM 27.9067 -81.9603 330° Northwest 147 169 20,000  Level Jacksonville Center
04:27PM 27.9422 -81.9858 328° Northwest 147 169 20,000  Level Jacksonville Center
04:28PM 27.9778 -82.0089 330° Northwest 147 169 20,000  Level Jacksonville Center
04:29PM 28.0114 -82.0369 324° Northwest 147 169 20,000  Level Jacksonville Center
04:30PM 28.0431 -82.0647 322° Northwest 147 169 20,000  Level Jacksonville Center
04:31PM 28.0722 -82.0928 320° Northwest 142 163 20,000  Level Jacksonville Center
04:32PM 28.1039 -82.1208 322° Northwest 142 163 20,000  Level Jacksonville Center
04:33PM 28.1353 -82.1489 322° Northwest 142 163 20,000  Level Jacksonville Center
04:34PM 28.1667 -82.1769 322° Northwest 142 163 20,000  Level Jacksonville Center
04:35PM 28.2003 -82.2072 322° Northwest 137 158 20,000  Level Jacksonville Center
04:36PM 28.2339 -82.2353 324° Northwest 137 158 20,000  Level Jacksonville Center
04:37PM 28.2653 -82.2633 322° Northwest 137 158 20,000  Level Jacksonville Center
04:38PM 28.2989 -82.2939 321° Northwest 142 163 20,000  Level Jacksonville Center
04:39PM 28.3322 -82.3242 321° Northwest 142 163 20,000  Level Jacksonville Center
04:40PM 28.3658 -82.3522 324° Northwest 147 169 20,000  Level Jacksonville Center
04:41PM 28.3953 -82.3806 320° Northwest 147 169 20,000  Level Jacksonville Center
04:42PM 28.4267 -82.4111 319° Northwest 147 169 20,000  Level Jacksonville Center
04:43PM 28.4600 -82.4369 326° Northwest 142 163 20,000  Level Jacksonville Center
04:44PM 28.4894 -82.4650 320° Northwest 142 163 20,000  Level Jacksonville Center
04:45PM 28.5186 -82.4908 322° Northwest 137 158 20,000  Level Jacksonville Center
04:46PM 28.5500 -82.5217 319° Northwest 137 158 20,000  Level Jacksonville Center
04:47PM 28.5814 -82.5497 322° Northwest 137 158 20,000  Level Jacksonville Center
04:48PM 28.6128 -82.5781 322° Northwest 137 158 20,000  Level Jacksonville Center
04:49PM 28.6442 -82.6064 322° Northwest 137 158 20,000  Level Jacksonville Center
04:50PM 28.6733 -82.6322 322° Northwest 137 158 20,000  Level Jacksonville Center
04:51PM 28.7028 -82.6583 322° Northwest 137 158 20,000  Level Jacksonville Center
04:52PM 28.7342 -82.6867 322° Northwest 137 158 20,000  Level Jacksonville Center
04:53PM 28.7633 -82.7150 320° Northwest 137 158 20,000  Level Jacksonville Center
04:54PM 28.7947 -82.7408 324° Northwest 137 158 20,000  Level Jacksonville Center
04:55PM 28.8261 -82.7694 321° Northwest 137 158 20,000  Level Jacksonville Center
04:56PM 28.8553 -82.8003 317° Northwest 137 158 20,000  Level Jacksonville Center
04:57PM 28.8719 -82.8356 298° West 131 151 20,000  Level Jacksonville Center
04:58PM 28.8928 -82.8736 302° West 131 151 20,000  Level Jacksonville Center
04:59PM 28.9158 -82.9069 308° West 136 157 20,000  Level Jacksonville Center
05:01PM 28.9783 -82.9639 321° Northwest 141 162 20,000  Level Jacksonville Center
05:02PM 29.0097 -82.9900 324° Northwest 141 162 20,000  Level Jacksonville Center
05:03PM 29.0411 -83.0183 322° Northwest 141 162 20,000  Level Jacksonville Center
05:04PM 29.0722 -83.0447 323° Northwest 141 162 20,000  Level Jacksonville Center
05:05PM 29.1036 -83.0731 322° Northwest 141 162 20,000  Level Jacksonville Center
05:06PM 29.1347 -83.0994 323° Northwest 136 157 20,000  Level Jacksonville Center
05:07PM 29.1661 -83.1281 321° Northwest 136 157 20,000  Level Jacksonville Center
05:08PM 29.1972 -83.1542 324° Northwest 136 157 20,000  Level Jacksonville Center
05:09PM 29.2264 -83.1806 322° Northwest 136 157 20,000  Level Jacksonville Center
05:10PM 29.2556 -83.2067 322° Northwest 136 157 20,000  Level Jacksonville Center
05:11PM 29.2869 -83.2356 321° Northwest 136 157 20,000  Level Jacksonville Center
05:12PM 29.3181 -83.2642 321° Northwest 136 157 20,000  Level Jacksonville Center
05:13PM 29.3494 -83.2906 324° Northwest 136 157 20,000  Level Jacksonville Center
05:14PM 29.3786 -83.3167 322° Northwest 136 157 20,000  Level Jacksonville Center
05:15PM 29.4097 -83.3456 321° Northwest 136 157 20,000  Level Jacksonville Center
05:16PM 29.4389 -83.3719 322° Northwest 136 157 20,000  Level Jacksonville Center
05:17PM 29.4681 -83.4006 320° Northwest 136 157 20,000  Level Jacksonville Center
05:18PM 29.4908 -83.4317 310° West 131 151 20,000  Level Jacksonville Center
05:19PM 29.5136 -83.4653 308° West 131 151 20,000  Level Jacksonville Center
05:20PM 29.5364 -83.4964 310° West 131 151 20,000  Level Jacksonville Center
05:21PM 29.5614 -83.5300 311° West 131 151 20,000  Level Jacksonville Center
05:22PM 29.5842 -83.5611 310° West 131 151 20,000  Level Jacksonville Center
05:23PM 29.6050 -83.5925 307° West 131 151 20,000  Level Jacksonville Center
05:24PM 29.6278 -83.6236 310° West 131 151 20,000  Level Jacksonville Center
05:25PM 29.6483 -83.6550 307° West 131 151 20,000  Level Jacksonville Center
05:26PM 29.6711 -83.6814 315° West 131 151 20,000  Level Jacksonville Center
05:27PM 29.6919 -83.7103 310° West 131 151 20,000  Level Jacksonville Center
05:28PM 29.7125 -83.7414 307° West 126 145 20,000  Level Jacksonville Center
05:29PM 29.7331 -83.7703 309° West 126 145 20,000  Level Jacksonville Center
05:30PM 29.7539 -83.7992 310° West 126 145 20,000  Level Jacksonville Center
05:31PM 29.7725 -83.8306 304° West 121 139 20,000  Level Jacksonville Center
05:32PM 29.7931 -83.8569 312° West 121 139 20,000  Level Jacksonville Center
05:33PM 29.8139 -83.8883 307° West 121 139 20,000  Level Jacksonville Center
05:34PM 29.8303 -83.9197 301° West 121 139 20,000  Level Jacksonville Center
05:35PM 29.8425 -83.9558 291° West 116 133 20,000  Level Jacksonville Center
05:36PM 29.8547 -83.9894 293° West 116 133 20,000  Level Jacksonville Center
05:37PM 29.8689 -84.0208 298° West 116 133 20,000  Level Jacksonville Center
05:38PM 29.8811 -84.0544 293° West 116 133 20,000  Level Jacksonville Center
05:39PM 29.9039 -84.0833 312° West 116 133 20,000  Level Jacksonville Center
05:40PM 29.9203 -84.1147 301° West 116 133 20,000  Level Jacksonville Center
05:41PM 29.9347 -84.1461 298° West 116 133 20,000  Level Jacksonville Center
05:42PM 29.9511 -84.1797 299° West 116 133 20,000  Level Jacksonville Center
05:43PM 29.9653 -84.2136 296° West 116 133 20,000  Level Jacksonville Center
05:44PM 29.9817 -84.2475 299° West 116 133 20,000  Level Jacksonville Center
05:45PM 29.9939 -84.2836 291° West 116 133 20,000  Level Jacksonville Center
05:46PM 30.0103 -84.3150 301° West 116 133 20,000  Level Jacksonville Center
05:47PM 30.0264 -84.3464 301° West 116 133 20,000  Level Jacksonville Center
05:48PM 30.0408 -84.3803 296° West 111 128 20,000  Level Jacksonville Center
05:49PM 30.0550 -84.4142 296° West 111 128 20,000  Level Jacksonville Center
05:50PM 30.0692 -84.4478 296° West 111 128 20,000  Level Jacksonville Center
05:51PM 30.0833 -84.4769 299° West 111 128 20,000  Level Jacksonville Center
05:52PM 30.0997 -84.5108 299° West 116 133 20,000  Level Jacksonville Center
05:53PM 30.1158 -84.5447 299° West 116 133 20,000  Level Jacksonville Center
05:54PM 30.1281 -84.5808 291° West 116 133 20,000  Level Jacksonville Center
05:55PM 30.1442 -84.6125 300° West 116 133 20,000  Level Jacksonville Center
05:56PM 30.1583 -84.6464 296° West 116 133 20,000  Level Jacksonville Center
06:20PM 30.5064 -85.4314 297° West 117 135 20,000  Level Jacksonville Center
06:21PM 30.5693 -85.5811 297° West  Level FlightAware Approximate
06:21PM 30.5244 -85.4633 303° West 117 135 20,000  Level Jacksonville Center
06:22PM 30.5859 -85.6193 297° West  Level FlightAware Approximate
06:22PM 30.5364 -85.4900 297° West 117 135 20,000  Level Jacksonville Center
06:23PM 30.6024 -85.6576 297° West  Level FlightAware Approximate
06:23PM 30.5506 -85.5242 296° West 117 135 20,000  Level Jacksonville Center
06:24PM 30.6190 -85.6958 297° West  Level FlightAware Approximate
06:24PM 30.5644 -85.5583 295° West 117 135 20,000  Level Jacksonville Center
06:25PM 30.6356 -85.7341 297° West  Level FlightAware Approximate
06:25PM 30.5783 -85.5903 297° West 112 129 20,000  Level Jacksonville Center
06:26PM 30.5922 -85.6219 297° West 112 129 20,000  Level Jacksonville Center
06:27PM 30.6061 -85.6561 295° West 112 129 20,000  Level Jacksonville Center
06:28PM 30.6200 -85.6878 297° West 112 129 20,000  Level Jacksonville Center
06:29PM 30.6339 -85.7219 295° West 112 129 20,000  Level Jacksonville Center
06:30PM 30.6497 -85.7539 300° West 117 135 20,000  Level Jacksonville Center
06:31PM 30.6636 -85.7858 297° West 117 135 20,000  Level Jacksonville Center
06:32PM 30.6775 -85.8200 295° West 112 129 20,000  Level Jacksonville Center
06:33PM 30.6936 -85.8519 300° West 112 129 20,000  Level Jacksonville Center
06:34PM 30.7072 -85.8861 295° West 112 129 20,000  Level Jacksonville Center
06:35PM 30.7211 -85.9181 297° West 112 129 20,000  Level Jacksonville Center
06:36PM 30.7372 -85.9500 300° West 112 129 20,000  Level Jacksonville Center
06:37PM 30.7508 -85.9842 295° West 112 129 20,000  Level Jacksonville Center
06:38PM 30.7669 -86.0186 299° West 112 129 20,000  Level Jacksonville Center
06:39PM 30.7786 -86.0503 293° West 112 129 20,000  Level Jacksonville Center
06:40PM 30.7944 -86.0847 298° West 112 129 20,000  Level Jacksonville Center
06:41PM 30.8081 -86.1189 295° West 112 129 20,000  Level Jacksonville Center
06:42PM 30.8136 -86.1556 280° West 112 129 20,000  Level Jacksonville Center
06:43PM 30.8147 -86.1917 272° West 112 129 20,000  Level Jacksonville Center
06:44PM 30.8158 -86.2281 272° West 117 135 20,000  Level Jacksonville Center
06:45PM 30.8169 -86.2669 272° West 122 140 20,000  Level Jacksonville Center
06:46PM 30.8158 -86.3081 268° West 122 140 20,000  Level Jacksonville Center
06:47PM 30.8169 -86.3419 272° West 122 140 20,000  Level Jacksonville Center
06:48PM 30.8178 -86.3831 271° West 122 140 20,000  Level Jacksonville Center
06:49PM 30.8211 -86.4169 277° West 117 135 20,000  Level Jacksonville Center
06:50PM 30.8219 -86.4581 271° West 123 142 20,000  Level Jacksonville Center
06:51PM 30.8208 -86.4992 268° West 123 142 20,000  Level Jacksonville Center
06:52PM 30.8219 -86.5356 272° West 123 142 20,000  Level Jacksonville Center
06:53PM 30.8250 -86.5767 275° West 123 142 20,000  Level Jacksonville Center
06:54PM 30.8239 -86.6156 268° West 123 142 20,000  Level Jacksonville Center
06:55PM 30.8247 -86.6567 271° West 123 142 20,000 -50 Level Jacksonville Center
06:56PM 30.8256 -86.7000 271° West 123 142 19,900 -300 Descending Jacksonville Center
06:57PM 30.8219 -86.7436 265° West 128 147 19,400 -550 Descending Jacksonville Center
06:58PM 30.8206 -86.7942 268° West 141 162 18,800 -585 Descending Jacksonville Center
06:58PM 30.8156 -86.8158 255° West 151 174 18,600 -610 Descending Jacksonville Center
06:59PM 30.8106 -86.8447 259° West 150 173 18,200 -632 Descending Jacksonville Center
06:59PM 30.8150 -86.8425 23° Northeast 147 169 18,200 -492 Level Jacksonville Center
07:00PM 30.8114 -86.8883 265° West 152 175 17,700 -545 Descending Jacksonville Center
07:00PM 30.8064 -86.9097 255° West 151 174 17,500 -600 Descending Jacksonville Center
07:01PM 30.8056 -86.9364 268° West 152 175 17,100 -590 Descending Jacksonville Center
07:01PM 30.8028 -86.9581 262° West 149 171 16,900 -500 Descending Jacksonville Center
07:02PM 30.8042 -86.9869 273° West 152 175 16,600 -492 Descending Jacksonville Center
07:02PM 30.7992 -87.0061 253° West 152 175 16,400 -500 Descending Jacksonville Center
07:03PM 30.7983 -87.0350 268° West 157 181 16,100 -667 Descending Jacksonville Center
07:03PM 30.7956 -87.0519 259° West 152 175 15,800 -600 Descending Jacksonville Center
07:04PM 30.7947 -87.0833 268° West 157 181 15,500 -537 Descending Jacksonville Center
07:04PM 30.7897 -87.1072 256° West 155 178 15,200 -774 Descending Jacksonville Center
07:05PM 30.7864 -87.1411 263° West 153 176 14,700 -540 Descending Jacksonville Center
07:06PM 30.7869 -87.1844 271° West 157 181 14,300 -492 Descending Jacksonville Center
07:06PM 30.7847 -87.1892 241° Southwest 154 177 14,200 -600 Descending Jacksonville Center
07:07PM 30.7814 -87.2325 265° West 157 181 13,700 -689 Descending Jacksonville Center
07:07PM 30.7767 -87.2422 241° Southwest 155 178 13,500 -738 Descending Jacksonville Center
07:08PM 30.7731 -87.2928 265° West 156 180 12,900 -595 Descending Jacksonville Center
07:09PM 30.7714 -87.3408 268° West 154 177 12,300 -470 Descending Jacksonville Center
07:10PM 30.7681 -87.3747 263° West 157 181 12,000 -470 Descending Jacksonville Center
07:11PM 30.7642 -87.4228 265° West 157 181 11,400 -806 Descending Jacksonville Center
07:11PM 30.7617 -87.4372 259° West 147 169 11,100 -600 Descending Jacksonville Center
07:12PM 30.7603 -87.4708 267° West 157 181 10,800 -492 Descending Jacksonville Center
07:12PM 30.7578 -87.4853 259° West 146 168 10,600 -600 Descending Jacksonville Center
07:13PM 30.7544 -87.5167 263° West 157 181 10,200 -636 Descending Jacksonville Center
07:13PM 30.7517 -87.5358 260° West 148 170 9,900 -653 Descending Jacksonville Center
07:15PM 30.7469 -87.6400 267° West 150 173 8,600 -612 Descending Houston Center
07:16PM 30.7417 -87.6922 263° West 159 183 7,900 -672 Descending Houston Center
07:17PM 30.7369 -87.7486 264° West 169 194 7,200 -677 Descending Houston Center
07:18PM 30.7317 -87.8050 264° West 173 199 6,500 -677 Descending Houston Center
07:19PM 30.6900 -87.8517 224° Southwest 201 231 5,800 -774 Descending Houston Center
07:20PM 30.6553 -87.9153 238° Southwest 203 234 4,900 -871 Descending Houston Center
07:21PM 30.6139 -87.9589 222° Southwest 203 234 4,000 -726 Descending Houston Center
07:22PM 30.5797 -88.0050 229° Southwest 201 231 3,400 -581 Descending Houston Center
07:23PM 30.5564 -88.0564 242° Southwest 187 215 2,800 -576 Descending Houston Center
07:25PM 30.5447 -88.1050 254° West 173 199 2,200 -384 Descending Houston Center
07:26PM 30.5672 -88.1422 305° West 156 180 2,000 -145 Descending Houston Center
07:27PM 30.6008 -88.1689 326° Northwest 134 154 1,900 -194 Descending Houston Center
07:28PM 30.6264 -88.1906 324° Northwest 122 140 1,600 -387 Descending Houston Center
07:29PM 30.6481 -88.2083 325° Northwest 109 125 1,100 -435 Descending Houston Center
07:30PM 30.6675 -88.2253 323° Northwest 97 112 700 -387 Descending Houston Center
07:31PM 30.6906 -88.2442 325° Northwest 93 107 300 -387 Descending Houston Center